[[{"header":{"parameterUnit":"m.s-1","parameterCategory":2,"la1":30.2991,"la2":30.254,"lo1":-89.0895,"lo2":-89.0444,"dy":0.0017,"dx":0.0017,"nx":28,"ny":28,"refTime":"2023-08-18T09:00:00:Z","depth":"0","parameterNumber":2,"parameterNumberName":"U-component_of_CURRENTS"},"data":[0,0,0,0,0,0,0,0,0,0,0,0,0,0,0,0,0,0,0,0,0,0,0,0,0,0,0,0,0,0,0,0,0,0,0,0,0,0,0,0,0,0,0,0,0,0,0,0,0,0,0,0,0,0,0,0,0,0,0.2201,0.2202,0,0.2326,0.2327,0.2328,0.2353,0.2352,0.2352,0.2352,0.237,0.2371,0.2372,0,0,0,0,0,0,0,0,0,0,0,0,0,0.2123,0.2123,0.22,0.2202,0.2205,0.2326,0.2327,0.2328,0.2353,0.2352,0.2352,0.2351,0.237,0.2371,0.2372,0,0,0,0,0,0,0,0,0,0,0,0,0,0.2188,0.2123,0.22,0.2236,0.224,0.2326,0.2327,0.2329,0.2353,0.2352,0.2352,0.2351,0.237,0.2371,0.2372,0.2395,0,0,0.2377,0.2377,0,0,0,0,0,0,0,0,0.2184,0.219,0.2228,0.2233,0.2239,0.2328,0.2308,0.2348,0.2353,0.2304,0.2352,0.2351,0.235,0.2353,0.2372,0.2396,0.2397,0.2377,0.2378,0.2378,0.2379,0,0,0,0,0,0,0,0.2179,0.2186,0.2244,0.2231,0.2237,0.2295,0.2301,0.2316,0.2323,0.2309,0.2312,0.2335,0.2352,0.2371,0.2373,0.2397,0.2377,0.2378,0.2379,0.2379,0.25,0.2502,0,0,0,0,0,0,0.2168,0.2181,0.2241,0.2249,0.2216,0.2296,0.2303,0.2296,0.2326,0.2332,0.2336,0.2336,0.2369,0.2371,0.2373,0.2415,0.2378,0.2379,0.238,0.2498,0.2501,0.2503,0,0,0,0,0,0,0.2166,0.2171,0.2236,0.2224,0.2237,0.2298,0.229,0.2299,0.2332,0.2349,0.2352,0.2362,0.2368,0.2371,0.2395,0.2415,0.238,0.2381,0.2495,0.2499,0.2502,0.249,0,0,0,0,0,0,0.2162,0.2169,0.2161,0.2222,0.2237,0.2286,0.2291,0.2302,0.235,0.2351,0.2372,0.2373,0.2368,0.2393,0.2396,0.2416,0.2383,0.2492,0.2497,0.2501,0.2487,0.2492,0.2497,0,0,0,0,0,0.2159,0.2152,0.2158,0.2167,0.2222,0.2287,0.23,0.2338,0.2352,0.2366,0.2382,0.2373,0.2424,0.2395,0.2399,0.242,0.249,0.2495,0.2501,0.2485,0.2491,0.2497,0,0,0,0,0,0,0.2123,0.2156,0.2164,0.2169,0.2224,0.2293,0.2314,0.2351,0.238,0.2378,0.2389,0.2391,0.2427,0.2435,0.2403,0.2476,0.2462,0.2468,0.2449,0.2455,0.246,0.2419,0.2384,0,0,0,0,0,0.211,0.2101,0.2163,0.2167,0.2193,0.2258,0.2291,0.2324,0.2364,0.2377,0.2389,0.2416,0.2454,0.246,0.2486,0.2513,0.2532,0.2539,0.2544,0.2547,0.2522,0.2594,0.2602,0.2521,0.2521,0.2521,0,0,0.2103,0.2117,0.2117,0.2159,0.22,0.2237,0.2274,0.2327,0.2352,0.2373,0.2392,0.2431,0.2469,0.2502,0.2519,0.2505,0.2585,0.2554,0.2556,0.2528,0.26,0.2608,0.2614,0.2524,0.2524,0.2523,0,0,0.2097,0.2093,0.2097,0.2137,0.2201,0.2232,0.2251,0.2321,0.2341,0.2378,0.2411,0.2456,0.2494,0.2526,0.255,0.2602,0.2615,0.263,0.2605,0.2676,0.2682,0.2688,0.2728,0.2737,0.2623,0.2623,0.2623,0,0.2092,0.2094,0.2116,0.2143,0.2171,0.2228,0.2259,0.2291,0.2357,0.2379,0.2376,0.2482,0.2503,0.2571,0.2579,0.2608,0.2642,0.2571,0.2678,0.2684,0.269,0.273,0.274,0.2623,0.2623,0.2623,0.2623,0,0.2103,0.211,0.2121,0.2148,0.2178,0.2217,0.2264,0.2289,0.2316,0.236,0.243,0.2474,0.254,0.2567,0.2573,0.2644,0.2654,0.268,0.265,0.2696,0.2737,0.2747,0.2623,0.2623,0.2623,0.2623,0,0,0.2091,0.2119,0.2126,0.2138,0.2184,0.2215,0.2235,0.2287,0.2319,0.237,0.2418,0.2485,0.2532,0.2563,0.2612,0.2646,0.2711,0.2663,0.2667,0.2677,0.2852,0.2834,0.2843,0.276,0.2762,0.2763,0.2865,0,0.2103,0.2126,0.2138,0.2167,0.2187,0.222,0.2236,0.2285,0.2323,0.2374,0.2444,0.251,0.2531,0.2572,0.2619,0.2696,0.2738,0.2679,0.2827,0.283,0.2787,0.2855,0.2766,0.2847,0.2875,0.2877,0.2878,0,0.2126,0.2129,0.2147,0.217,0.2184,0.22,0.2235,0.2264,0.2339,0.2376,0.2455,0.2516,0.2596,0.2601,0.2744,0.271,0.277,0.2812,0.2819,0.2803,0.2831,0.2808,0.2865,0.2705,0.2894,0.2893,0.2892,0,0.2114,0.2146,0.2144,0.2158,0.2188,0.2195,0.2212,0.227,0.2301,0.2385,0.2428,0.2541,0.2612,0.27,0.2797,0.2781,0.2936,0.2942,0.2981,0.298,0.2929,0.292,0.2821,0.3032,0.3031,0.3031,0.3031,0,0.2125,0.2136,0.2139,0.2145,0.2151,0.2182,0.2206,0.2243,0.2307,0.2355,0.2441,0.2509,0.2639,0.2746,0.2814,0.2936,0.2975,0.2974,0.3011,0.2925,0.2915,0.2794,0.2741,0.3035,0.3034,0.3033,0.3033,0,0.212,0.213,0.2131,0.214,0.2146,0.2151,0.2186,0.221,0.228,0.2343,0.2371,0.251,0.2644,0.2765,0.2916,0.2971,0.2995,0.3103,0.2974,0.2992,0.285,0.2802,0.2786,0.2728,0.3152,0.3152,0.3152,0,0.2112,0.2103,0.2105,0.2096,0.2098,0.2111,0.2119,0.2186,0.2216,0.2343,0.2375,0.2522,0.263,0.2849,0.296,0.3092,0.2998,0.3072,0.3016,0.282,0.2796,0.2752,0.2701,0.2953,0.2952,0.295,0.295,0,0.2063,0.2061,0.2051,0.2036,0.2037,0.205,0.2073,0.2098,0.2184,0.226,0.2373,0.2467,0.2679,0.278,0.2948,0.3023,0.2912,0.3051,0.2896,0.2661,0.2562,0.253,0.2884,0.2939,0.294,0.2941,0.2941,0.2942,0.2009,0.1983,0.1959,0.1942,0.1952,0.1966,0.1968,0.2021,0.2083,0.2165,0.2308,0.2399,0.2553,0.2783,0.2844,0.2812,0.2862,0.2734,0.2706,0.2688,0.2579,0.2887,0.2954,0.2955,0.2956,0.2957,0.2957,0,0.1907,0.1883,0.1857,0.1841,0.1822,0.1869,0.1909,0.1908,0.1959,0.2052,0.2155,0.2246,0.2349,0.2444,0.2509,0.245,0.2435,0.2374,0.225,0.2229,0.2535,0.2464,0.2368,0.2368,0.2369,0.2369,0.2369,0.2369,0.1861,0.1791,0.1768,0.1696,0.1697,0.1678,0.1695,0.1724,0.177,0.1789,0.1808,0.1898,0.2007,0.2073,0.2031,0.2035,0.1916,0.1915,0.1895,0.2028,0.2056,0.2084,0.1999,0.1807,0.1807,0.1537,0.1534,0.1532]},{"header":{"parameterUnit":"m.s-1","parameterCategory":2,"la1":30.2991,"la2":30.254,"lo1":-89.0895,"lo2":-89.0444,"dy":0.0017,"dx":0.0017,"nx":28,"ny":28,"refTime":"2023-08-18T09:00:00:Z","depth":"0","parameterNumber":3,"parameterNumberName":"V-component_of_CURRENTS"},"data":[0,0,0,0,0,0,0,0,0,0,0,0,0,0,0,0,0,0,0,0,0,0,0,0,0,0,0,0,0,0,0,0,0,0,0,0,0,0,0,0,0,0,0,0,0,0,0,0,0,0,0,0,0,0,0,0,0,0,-0.057,-0.057,0,-0.0604,-0.0604,-0.0605,-0.0635,-0.0636,-0.0636,-0.0636,-0.0654,-0.0655,-0.0655,0,0,0,0,0,0,0,0,0,0,0,0,0,-0.0582,-0.0582,-0.057,-0.057,-0.057,-0.0604,-0.0604,-0.0605,-0.0635,-0.0636,-0.0636,-0.0636,-0.0654,-0.0655,-0.0655,0,0,0,0,0,0,0,0,0,0,0,0,0,-0.0594,-0.0581,-0.057,-0.0588,-0.059,-0.0603,-0.0604,-0.0605,-0.0635,-0.0636,-0.0636,-0.0636,-0.0654,-0.0655,-0.0655,-0.0652,0,0,-0.0656,-0.0657,0,0,0,0,0,0,0,0,-0.0593,-0.0594,-0.0585,-0.0587,-0.0589,-0.0614,-0.0615,-0.0619,-0.0635,-0.062,-0.0636,-0.0636,-0.0638,-0.064,-0.0648,-0.0653,-0.0653,-0.0657,-0.0657,-0.0657,-0.0657,0,0,0,0,0,0,0,-0.0592,-0.0593,-0.0585,-0.0585,-0.0588,-0.0612,-0.0614,-0.0617,-0.0628,-0.0621,-0.0623,-0.0624,-0.0639,-0.0648,-0.0649,-0.0654,-0.0657,-0.0657,-0.0657,-0.0657,-0.0641,-0.0641,0,0,0,0,0,0,-0.0581,-0.0591,-0.0584,-0.0586,-0.059,-0.0611,-0.0613,-0.0607,-0.0628,-0.0631,-0.0624,-0.0625,-0.0647,-0.0648,-0.065,-0.062,-0.0657,-0.0657,-0.0658,-0.0642,-0.0641,-0.064,0,0,0,0,0,0,-0.0581,-0.058,-0.0582,-0.0589,-0.059,-0.061,-0.0603,-0.0608,-0.0612,-0.063,-0.0633,-0.0623,-0.0647,-0.0649,-0.0648,-0.0622,-0.0658,-0.0658,-0.0643,-0.0642,-0.0641,-0.0578,0,0,0,0,0,0,-0.0581,-0.058,-0.0576,-0.0587,-0.059,-0.0577,-0.0603,-0.0608,-0.0612,-0.0614,-0.0631,-0.0633,-0.0648,-0.0647,-0.0648,-0.0623,-0.0658,-0.0644,-0.0642,-0.0641,-0.0581,-0.0575,-0.057,0,0,0,0,0,-0.0582,-0.0571,-0.0576,-0.0575,-0.0582,-0.0576,-0.0579,-0.0596,-0.0611,-0.0604,-0.0621,-0.0632,-0.0639,-0.0647,-0.0648,-0.0623,-0.0644,-0.0643,-0.0641,-0.0584,-0.0576,-0.057,0,0,0,0,0,0,-0.0578,-0.0573,-0.0579,-0.0568,-0.0566,-0.058,-0.058,-0.059,-0.06,-0.0606,-0.0626,-0.0629,-0.0618,-0.0631,-0.0639,-0.0616,-0.0642,-0.0641,-0.0598,-0.0591,-0.0586,-0.0565,-0.0659,0,0,0,0,0,-0.0574,-0.056,-0.0562,-0.0552,-0.0551,-0.0565,-0.0567,-0.0576,-0.0584,-0.059,-0.0599,-0.0611,-0.0613,-0.0611,-0.0619,-0.0604,-0.0616,-0.0589,-0.0584,-0.0579,-0.0564,-0.0572,-0.0566,-0.0635,-0.0635,-0.0635,0,0,-0.0569,-0.0565,-0.0558,-0.055,-0.0555,-0.0541,-0.0567,-0.0564,-0.0547,-0.0589,-0.0573,-0.0592,-0.0607,-0.0594,-0.0589,-0.06,-0.0564,-0.0577,-0.0573,-0.056,-0.057,-0.0563,-0.0557,-0.0634,-0.0634,-0.0634,0,0,-0.0549,-0.0548,-0.0532,-0.0527,-0.0525,-0.0526,-0.052,-0.0526,-0.0523,-0.0512,-0.0539,-0.0542,-0.0543,-0.0548,-0.0551,-0.0518,-0.0538,-0.052,-0.0469,-0.0477,-0.0471,-0.0466,-0.0466,-0.0462,-0.0513,-0.0513,-0.0513,0,-0.055,-0.0523,-0.0526,-0.0511,-0.0501,-0.0513,-0.0491,-0.0486,-0.0489,-0.0481,-0.0496,-0.0501,-0.0517,-0.0499,-0.0488,-0.0503,-0.0511,-0.0492,-0.0469,-0.0464,-0.046,-0.0462,-0.0458,-0.051,-0.051,-0.051,-0.0511,0,-0.0514,-0.0499,-0.0488,-0.0466,-0.0453,-0.0437,-0.0427,-0.0413,-0.0412,-0.0413,-0.0396,-0.042,-0.0423,-0.0426,-0.0444,-0.0419,-0.0435,-0.0465,-0.0484,-0.0449,-0.0453,-0.045,-0.0505,-0.0506,-0.0507,-0.0508,0,0,-0.0496,-0.0469,-0.0466,-0.0447,-0.0428,-0.0411,-0.0376,-0.0347,-0.0319,-0.0325,-0.0294,-0.0303,-0.0325,-0.033,-0.0356,-0.0356,-0.0337,-0.0389,-0.0391,-0.0384,-0.0346,-0.0336,-0.0333,-0.0364,-0.0364,-0.0363,-0.0358,0,-0.0467,-0.0435,-0.042,-0.0375,-0.0353,-0.0343,-0.0304,-0.0282,-0.0264,-0.0237,-0.0256,-0.0246,-0.0285,-0.0288,-0.0292,-0.0328,-0.0326,-0.0334,-0.0384,-0.0385,-0.0377,-0.0328,-0.027,-0.0259,-0.0355,-0.0354,-0.0354,0,-0.0432,-0.041,-0.0373,-0.0324,-0.0312,-0.0283,-0.0222,-0.019,-0.0159,-0.015,-0.0146,-0.0166,-0.0166,-0.021,-0.0238,-0.0242,-0.0281,-0.031,-0.0311,-0.0319,-0.0369,-0.031,-0.025,-0.0286,-0.035,-0.035,-0.035,0,-0.0414,-0.0372,-0.034,-0.0327,-0.0277,-0.0246,-0.0212,-0.0168,-0.0126,-0.0101,-0.0076,-0.0091,-0.0096,-0.014,-0.0196,-0.0219,-0.0224,-0.0274,-0.0299,-0.0299,-0.0266,-0.0265,-0.024,-0.0288,-0.0288,-0.0289,-0.0289,0,-0.0388,-0.0357,-0.033,-0.0309,-0.0249,-0.0224,-0.0152,-0.0124,-0.007,-0.0015,-0.0038,0.0001,-0.0079,-0.0094,-0.0158,-0.0202,-0.02,-0.0268,-0.0289,-0.0243,-0.0239,-0.0285,-0.0333,-0.0288,-0.0288,-0.0288,-0.0288,0,-0.0371,-0.0363,-0.0315,-0.0262,-0.0242,-0.0199,-0.0116,-0.0057,-0.0023,0.0051,0.0059,0.0071,0.0054,-0.0014,-0.008,-0.0149,-0.0226,-0.0222,-0.0154,-0.0167,-0.0236,-0.0284,-0.036,-0.0374,-0.0248,-0.0248,-0.0247,0,-0.036,-0.0338,-0.0284,-0.0245,-0.0217,-0.0153,-0.0096,-0.0044,0.002,0.0103,0.0144,0.0151,0.0184,0.0104,-0.0013,-0.0106,-0.0191,-0.0137,-0.0175,-0.0206,-0.0275,-0.0371,-0.0385,-0.0107,-0.0106,-0.0105,-0.0104,0,-0.0313,-0.0303,-0.0263,-0.0191,-0.0133,-0.0063,0.0016,0.0067,0.0138,0.0207,0.0299,0.0335,0.0269,0.0226,0.009,0.0005,-0.0167,-0.0117,-0.0163,-0.0161,-0.0249,-0.0284,-0.0148,-0.0093,-0.0094,-0.0095,-0.0096,-0.0096,-0.0274,-0.0234,-0.0179,-0.0112,-0.0048,0.004,0.011,0.0197,0.0301,0.0436,0.0433,0.0542,0.0446,0.0282,0.0152,-0.0035,-0.0113,-0.0085,-0.0139,-0.0233,-0.0245,-0.008,-0.0048,-0.0049,-0.005,-0.005,-0.0051,0,-0.0208,-0.0157,-0.0086,-0.0003,0.0078,0.0096,0.0206,0.0295,0.0427,0.0556,0.0656,0.0717,0.0592,0.0412,0.0137,-0.0015,-0.0119,-0.0093,-0.0193,-0.0205,-0.0046,-0.0034,0.0021,0.0021,0.0021,0.0021,0.0021,0.0021,-0.016,-0.0079,-0.0041,0.0105,0.0162,0.0293,0.036,0.048,0.0598,0.0789,0.0903,0.096,0.0861,0.036,0.0042,-0.005,-0.0203,-0.0241,-0.0323,-0.018,-0.0183,-0.0186,-0.0183,-0.0161,-0.0161,-0.0449,-0.0451,-0.0453]}],[{"header":{"parameterUnit":"m.s-1","parameterCategory":2,"la1":30.2991,"la2":30.254,"lo1":-89.0895,"lo2":-89.0444,"dy":0.0017,"dx":0.0017,"nx":28,"ny":28,"refTime":"2023-08-18T09:00:00:Z","depth":"2","parameterNumber":2,"parameterNumberName":"U-component_of_CURRENTS"},"data":[0,0,0,0,0,0,0,0,0,0,0,0,0,0,0,0,0,0,0,0,0,0,0,0,0,0,0,0,0,0,0,0,0,0,0,0,0,0,0,0,0,0,0,0,0,0,0,0,0,0,0,0,0,0,0,0,0,0,0.0199,0.0196,0,-0.0039,-0.0041,-0.0043,-0.0084,-0.0083,-0.0082,-0.008,-0.0055,-0.0056,-0.0056,0,0,0,0,0,0,0,0,0,0,0,0,0,0.0116,0.0122,0.0199,0.0196,0.0192,-0.0039,-0.0041,-0.0044,-0.0085,-0.0083,-0.0081,-0.008,-0.0055,-0.0056,-0.0056,0,0,0,0,0,0,0,0,0,0,0,0,0,0.0051,0.0124,0.02,0.0138,0.013,-0.0038,-0.0041,-0.0044,-0.0085,-0.0083,-0.0081,-0.0079,-0.0055,-0.0056,-0.0056,-0.0101,0,0,-0.0059,-0.0059,0,0,0,0,0,0,0,0,0.0056,0.0056,0.0151,0.0142,0.0132,-0.0037,-0.0062,-0.0053,-0.0085,0.0005,-0.008,-0.0078,-0.0031,-0.0034,-0.0076,-0.01,-0.0099,-0.0059,-0.006,-0.006,-0.006,0,0,0,0,0,0,0,0.0061,0.0062,0.0113,0.0147,0.0135,-0.0051,-0.0052,-0.0064,-0.001,-0.0003,-0.0009,-0.0048,-0.0033,-0.0075,-0.0075,-0.0099,-0.0059,-0.006,-0.006,-0.0061,0.0063,0.0067,0,0,0,0,0,0,0.0101,0.0071,0.012,0.0105,0.0089,-0.0049,-0.0051,0.0022,-0.0016,-0.0025,-0.0049,-0.0049,-0.0075,-0.0074,-0.0074,0.0077,-0.006,-0.0061,-0.0061,0.0059,0.0064,0.0068,0,0,0,0,0,0,0.0102,0.0112,0.0129,0.0067,0.0056,-0.0046,0.0032,0.0016,0.0024,-0.0056,-0.0057,-0.0018,-0.0073,-0.0073,0.0012,0.0071,-0.0061,-0.0062,0.0055,0.0061,0.0066,0.0248,0,0,0,0,0,0,0.0103,0.0117,0.0199,0.0076,0.0061,0.0087,0.0029,0.001,-0.001,-0.001,-0.003,-0.003,-0.0072,0.0014,0.0011,0.0067,-0.0063,0.005,0.0057,0.0064,0.0237,0.0259,0.0278,0,0,0,0,0,0.0102,0.0152,0.0208,0.0211,0.0178,0.0088,0.0066,-0.0005,-0.0009,0.0011,0.0032,-0.0027,0.0056,0.0017,0.0013,0.007,0.0047,0.0055,0.0064,0.0228,0.0255,0.0278,0,0,0,0,0,0,0.0156,0.0149,0.0206,0.0266,0.0228,0.008,0.0059,0.003,0.0048,0.0076,0.0027,0.0031,0.0124,0.008,0.0038,0.0129,0.0038,0.0046,0.0165,0.0189,0.021,0.0208,-0.0063,0,0,0,0,0,0.0218,0.0286,0.0236,0.0305,0.0283,0.0202,0.0162,0.0133,0.0103,0.011,0.0101,0.0111,0.0138,0.0159,0.0165,0.0215,0.0201,0.0248,0.0269,0.0286,0.0285,0.0337,0.0361,0.0096,0.0096,0.0096,0,0,0.0264,0.0266,0.0313,0.0323,0.0283,0.0268,0.0187,0.0152,0.0176,0.0115,0.0181,0.019,0.0174,0.0242,0.0276,0.0223,0.0366,0.0297,0.0312,0.0301,0.0348,0.0374,0.0397,0.0102,0.0101,0.01,0,0,0.0309,0.0397,0.0441,0.0409,0.0369,0.0334,0.035,0.0271,0.0283,0.0336,0.0318,0.0374,0.0389,0.0393,0.0395,0.053,0.048,0.0539,0.0632,0.0684,0.0706,0.0725,0.0785,0.0808,0.0541,0.0541,0.0541,0,0.0332,0.0437,0.043,0.0421,0.0405,0.0387,0.0399,0.0395,0.0374,0.0409,0.0398,0.0461,0.0451,0.0531,0.0585,0.0572,0.0605,0.0539,0.0711,0.0728,0.0744,0.0801,0.0824,0.0551,0.055,0.0549,0.0548,0,0.0414,0.0466,0.0461,0.0512,0.0509,0.0501,0.0497,0.0564,0.0593,0.0571,0.0672,0.0664,0.0699,0.071,0.0689,0.0804,0.0796,0.0739,0.0645,0.0782,0.0834,0.0854,0.0565,0.0561,0.0558,0.0556,0,0,0.0492,0.0512,0.0511,0.0539,0.0552,0.0543,0.0652,0.0709,0.0774,0.0801,0.0867,0.0923,0.0913,0.0916,0.0901,0.0937,0.1092,0.0904,0.0902,0.096,0.1245,0.1182,0.1196,0.1083,0.1087,0.1089,0.1251,0,0.0544,0.0566,0.0574,0.0626,0.0644,0.0677,0.0754,0.0822,0.0886,0.0952,0.0972,0.1026,0.099,0.1031,0.1072,0.1075,0.1148,0.1055,0.1105,0.1106,0.1029,0.1217,0.1043,0.1168,0.127,0.1274,0.1276,0,0.0608,0.0633,0.0681,0.0701,0.0709,0.0763,0.092,0.0958,0.1064,0.1115,0.1195,0.1189,0.1277,0.1207,0.1314,0.127,0.1293,0.1283,0.1288,0.1168,0.1079,0.1039,0.1199,0.1308,0.1306,0.1303,0.1301,0,0.0698,0.0679,0.0742,0.0743,0.079,0.0874,0.0924,0.104,0.1103,0.123,0.1304,0.1371,0.1422,0.1465,0.1481,0.1425,0.1575,0.1478,0.1452,0.1448,0.1272,0.1245,0.1581,0.158,0.158,0.158,0.1579,0,0.0731,0.0778,0.0789,0.084,0.0923,0.0925,0.1062,0.1133,0.1239,0.1311,0.1376,0.1469,0.1495,0.157,0.1563,0.1596,0.1663,0.1514,0.15,0.1335,0.1314,0.1383,0.1358,0.1586,0.1584,0.1583,0.1582,0,0.0805,0.0814,0.087,0.0936,0.0975,0.1027,0.1147,0.1221,0.1327,0.1444,0.15,0.1596,0.1699,0.1726,0.1789,0.1704,0.1728,0.1728,0.1544,0.1504,0.1542,0.1525,0.1702,0.1701,0.1701,0.17,0.17,0,0.0826,0.0876,0.095,0.0996,0.1039,0.1137,0.1214,0.13,0.137,0.1518,0.1556,0.1705,0.178,0.1856,0.1764,0.1772,0.1819,0.1605,0.1435,0.1594,0.1563,0.1546,0.153,0.1302,0.1298,0.1295,0.1293,0,0.0874,0.0913,0.0945,0.1072,0.115,0.1212,0.1319,0.1382,0.1456,0.1552,0.1645,0.171,0.1774,0.167,0.1674,0.1637,0.1575,0.1542,0.1804,0.1278,0.1225,0.119,0.1187,0.1267,0.127,0.1271,0.1273,0.1274,0.0891,0.0896,0.0973,0.1071,0.1149,0.1231,0.1282,0.1365,0.1431,0.1467,0.1589,0.1594,0.1481,0.1367,0.1367,0.1379,0.1436,0.1322,0.1329,0.1339,0.1244,0.119,0.121,0.1213,0.1214,0.1216,0.1218,0,0.0894,0.0927,0.0991,0.1065,0.1118,0.1211,0.1295,0.1305,0.1333,0.1347,0.1403,0.1175,0.1094,0.1122,0.1057,0.1012,0.0982,0.1016,0.0948,0.0972,0.0995,0.088,0.0752,0.0751,0.0751,0.075,0,0,0.0888,0.0955,0.0972,0.1018,0.1073,0.1123,0.1147,0.1167,0.1178,0.1107,0.1048,0.0972,0.0991,0.0773,0.0754,0.0794,0.0891,0.0775,0.1136,0.1078,0.11,0.1145,0.0993,0,0,0,0,0]},{"header":{"parameterUnit":"m.s-1","parameterCategory":2,"la1":30.2991,"la2":30.254,"lo1":-89.0895,"lo2":-89.0444,"dy":0.0017,"dx":0.0017,"nx":28,"ny":28,"refTime":"2023-08-18T09:00:00:Z","depth":"2","parameterNumber":3,"parameterNumberName":"V-component_of_CURRENTS"},"data":[0,0,0,0,0,0,0,0,0,0,0,0,0,0,0,0,0,0,0,0,0,0,0,0,0,0,0,0,0,0,0,0,0,0,0,0,0,0,0,0,0,0,0,0,0,0,0,0,0,0,0,0,0,0,0,0,0,0,0.0247,0.025,0,0.0304,0.0303,0.0302,0.0234,0.0234,0.0234,0.0233,0.0173,0.0172,0.017,0,0,0,0,0,0,0,0,0,0,0,0,0,0.0193,0.0191,0.0247,0.025,0.0253,0.0304,0.0303,0.0301,0.0234,0.0234,0.0234,0.0233,0.0173,0.0172,0.017,0,0,0,0,0,0,0,0,0,0,0,0,0,0.0207,0.0191,0.0247,0.0242,0.0244,0.0304,0.0303,0.0301,0.0235,0.0234,0.0233,0.0233,0.0174,0.0172,0.017,0.017,0,0,0.0164,0.0164,0,0,0,0,0,0,0,0,0.0206,0.0206,0.024,0.0243,0.0246,0.0282,0.0263,0.0259,0.0235,0.0214,0.0233,0.0233,0.0214,0.0209,0.0189,0.0168,0.0165,0.0164,0.0163,0.0162,0.0162,0,0,0,0,0,0,0,0.0205,0.0205,0.0246,0.0244,0.0247,0.0279,0.0276,0.0261,0.0196,0.0216,0.0217,0.026,0.0211,0.0191,0.0188,0.0164,0.0164,0.0163,0.0162,0.0161,0.0072,0.0071,0,0,0,0,0,0,0.0239,0.0203,0.0245,0.025,0.025,0.0281,0.0277,0.0252,0.0199,0.0198,0.0261,0.0257,0.0195,0.019,0.0185,0.0155,0.0162,0.0161,0.016,0.0073,0.0072,0.007,0,0,0,0,0,0,0.0236,0.0239,0.0243,0.0251,0.0256,0.0284,0.0255,0.0254,0.0239,0.0239,0.023,0.0251,0.0194,0.0188,0.0134,0.0153,0.016,0.0158,0.0075,0.0073,0.0071,0.0112,0,0,0,0,0,0,0.0233,0.0236,0.0199,0.025,0.0258,0.0284,0.0258,0.0256,0.0278,0.0272,0.0228,0.0221,0.0193,0.0136,0.0132,0.0151,0.0157,0.0076,0.0074,0.0072,0.0112,0.0112,0.0112,0,0,0,0,0,0.0229,0.0214,0.0194,0.0201,0.0213,0.0288,0.0291,0.0296,0.0278,0.0274,0.0212,0.0223,0.0119,0.0133,0.0128,0.0148,0.0077,0.0074,0.0072,0.0113,0.0112,0.0112,0,0,0,0,0,0,0.0169,0.021,0.0189,0.0179,0.023,0.0285,0.0288,0.0303,0.0251,0.023,0.0198,0.0186,0.0148,0.0132,0.0148,0.011,0.0105,0.0101,0.0138,0.0137,0.0137,0.0174,0.0155,0,0,0,0,0,0.0143,0.0131,0.0192,0.0182,0.0202,0.0236,0.0259,0.0279,0.0275,0.0252,0.0222,0.0176,0.0135,0.0121,0.0081,0.0064,0.0055,0.0073,0.0072,0.0073,0.0096,0.0057,0.0057,0.0061,0.0061,0.0061,0,0,0.0107,0.0145,0.0124,0.017,0.0188,0.0232,0.024,0.0291,0.0316,0.0254,0.0224,0.0173,0.0124,0.0088,0.0074,0.0079,0.0065,0.0069,0.007,0.0093,0.0054,0.0054,0.0054,0.0059,0.006,0.006,0,0,0.0114,0.0069,0.0083,0.0137,0.0217,0.0229,0.0252,0.03,0.0292,0.0282,0.0228,0.0181,0.0134,0.0099,0.0077,0.0055,0.0057,0.0046,0.0089,0.0051,0.0051,0.0051,0.0045,0.0044,0.0055,0.0056,0.0056,0,0.0107,0.0102,0.0105,0.0177,0.022,0.0231,0.0283,0.0286,0.0308,0.0305,0.0277,0.0188,0.0145,0.0112,0.0091,0.0062,0.0043,0.01,0.0054,0.0054,0.0053,0.0047,0.0045,0.0057,0.0057,0.0057,0.0057,0,0.0129,0.015,0.0177,0.0229,0.026,0.0317,0.035,0.034,0.0322,0.0342,0.0306,0.023,0.0184,0.0163,0.0118,0.0098,0.0087,0.0053,0.0067,0.0056,0.0049,0.0047,0.006,0.0059,0.0058,0.0058,0,0,0.012,0.018,0.0202,0.0238,0.0302,0.0345,0.0346,0.0373,0.0383,0.0367,0.0376,0.0294,0.0265,0.0235,0.0179,0.015,0.0121,0.0105,0.0102,0.0121,0.0056,0.0097,0.0099,0.0072,0.0072,0.0072,0.0056,0,0.0163,0.0259,0.0284,0.0363,0.0395,0.0409,0.0423,0.0443,0.042,0.0421,0.0375,0.0347,0.0293,0.0255,0.0222,0.0141,0.0116,0.0131,0.0045,0.0044,0.0099,0.0098,0.0071,0.0058,0.0054,0.0053,0.0053,0,0.0208,0.0256,0.032,0.0414,0.0433,0.0464,0.046,0.0496,0.0489,0.0472,0.0439,0.0412,0.0367,0.031,0.0216,0.0223,0.0148,0.0094,0.009,0.012,0.0081,0.0063,0.0055,0.005,0.005,0.005,0.005,0,0.0172,0.0314,0.0342,0.0381,0.0455,0.0464,0.0484,0.0486,0.0507,0.0487,0.0487,0.0447,0.0408,0.0325,0.0226,0.0208,0.0132,0.0087,0.0065,0.0067,0.0028,0.0029,0.0021,0.0021,0.0021,0.0021,0.0021,0,0.0214,0.0261,0.0326,0.0339,0.0392,0.0453,0.0473,0.0485,0.05,0.0541,0.0509,0.0519,0.0402,0.0359,0.026,0.0179,0.0155,0.0091,0.0067,0.0042,0.0043,0.0018,0.0018,0.002,0.002,0.0021,0.0021,0,0.0189,0.022,0.0293,0.0361,0.0364,0.041,0.0454,0.0488,0.0494,0.0531,0.053,0.0548,0.0505,0.0414,0.0285,0.0223,0.0134,0.0101,0.0104,0.0082,0.0089,0.0091,0.009,0.0092,0.0093,0.0094,0.0094,0,0.0194,0.0203,0.0282,0.0302,0.0326,0.0364,0.0385,0.0435,0.0482,0.0563,0.0609,0.0596,0.0628,0.0503,0.0341,0.0208,0.0169,0.0118,0.0081,0.0121,0.0097,0.0097,0.0097,0.0037,0.0037,0.0038,0.0038,0,0.0204,0.0221,0.0273,0.0285,0.0318,0.0389,0.0431,0.0466,0.0564,0.0627,0.0744,0.0787,0.0671,0.0548,0.0371,0.0278,0.0145,0.0122,0.0136,0.0041,0.0074,0.005,0.005,0.004,0.0039,0.0039,0.0039,0.0039,0.0222,0.0273,0.03,0.0339,0.0378,0.0451,0.0498,0.0582,0.0702,0.0822,0.0853,0.088,0.0664,0.0437,0.0303,0.0161,0.0175,0.0105,0.0102,0.01,0.0114,0.0148,0.0132,0.0132,0.0133,0.0133,0.0133,0,0.0254,0.028,0.0331,0.0409,0.0477,0.0467,0.0572,0.065,0.0809,0.0859,0.0946,0.0748,0.0619,0.041,0.0199,0.0099,0.0058,0.0071,0.0017,0.0017,0.0017,0.0024,0.0019,0.0019,0.0018,0.0018,0,0,0.0272,0.0303,0.0349,0.0484,0.0525,0.0633,0.0699,0.0807,0.0861,0.0933,0.0891,0.0803,0.058,0.0362,0.021,0.0133,0.0107,0.0117,0.022,0.0176,0.0177,0.0049,0.0062,0,0,0,0,0]}],[{"header":{"parameterUnit":"m.s-1","parameterCategory":2,"la1":30.2991,"la2":30.254,"lo1":-89.0895,"lo2":-89.0444,"dy":0.0017,"dx":0.0017,"nx":28,"ny":28,"refTime":"2023-08-18T09:00:00:Z","depth":"4","parameterNumber":2,"parameterNumberName":"U-component_of_CURRENTS"},"data":[0,0,0,0,0,0,0,0,0,0,0,0,0,0,0,0,0,0,0,0,0,0,0,0,0,0,0,0,0,0,0,0,0,0,0,0,0,0,0,0,0,0,0,0,0,0,0,0,0,0,0,0,0,0,0,0,0,0,-0.0543,-0.0543,0,-0.0544,-0.0545,-0.0545,-0.0566,-0.0566,-0.0566,-0.0566,-0.0624,-0.0625,-0.0627,0,0,0,0,0,0,0,0,0,0,0,0,0,-0.0542,-0.0542,-0.0543,-0.0543,-0.0542,-0.0544,-0.0545,-0.0545,-0.0566,-0.0566,-0.0566,-0.0566,-0.0623,-0.0625,-0.0627,0,0,0,0,0,0,0,0,0,0,0,0,0,-0.055,-0.0543,-0.0543,-0.0547,-0.0546,-0.0544,-0.0545,-0.0546,-0.0567,-0.0566,-0.0566,-0.0566,-0.0622,-0.0625,-0.0628,-0.0649,0,0,-0.0635,-0.0636,0,0,0,0,0,0,0,0,-0.055,-0.0551,-0.0547,-0.0546,-0.0546,-0.0548,-0.0565,-0.058,-0.0567,-0.0567,-0.0566,-0.0566,-0.0599,-0.0603,-0.0614,-0.0651,-0.0654,-0.0636,-0.0637,-0.0638,-0.0639,0,0,0,0,0,0,0,-0.0549,-0.0551,-0.0552,-0.0546,-0.0545,-0.0541,-0.0543,-0.0568,-0.0592,-0.0567,-0.0567,-0.0554,-0.06,-0.0612,-0.0616,-0.0655,-0.0635,-0.0638,-0.0639,-0.064,-0.0739,-0.074,0,0,0,0,0,0,-0.0534,-0.0551,-0.0551,-0.0551,-0.0538,-0.0541,-0.0543,-0.0554,-0.059,-0.0593,-0.0554,-0.0555,-0.0608,-0.0613,-0.0618,-0.0711,-0.0638,-0.0641,-0.0642,-0.0737,-0.0739,-0.074,0,0,0,0,0,0,-0.0535,-0.0535,-0.0551,-0.0543,-0.0543,-0.0541,-0.0553,-0.0554,-0.0588,-0.0578,-0.0584,-0.0588,-0.0608,-0.0614,-0.0656,-0.0711,-0.0642,-0.0644,-0.0736,-0.0738,-0.0739,-0.0856,0,0,0,0,0,0,-0.0535,-0.0536,-0.055,-0.0543,-0.0543,-0.0557,-0.0552,-0.0554,-0.0575,-0.0577,-0.0609,-0.0612,-0.0608,-0.0653,-0.0659,-0.0713,-0.0646,-0.0735,-0.0737,-0.0739,-0.0851,-0.0861,-0.087,0,0,0,0,0,-0.0536,-0.0542,-0.0551,-0.0551,-0.0559,-0.0556,-0.0558,-0.0559,-0.0577,-0.0592,-0.0617,-0.0613,-0.0669,-0.0656,-0.0663,-0.072,-0.0734,-0.0736,-0.0739,-0.0846,-0.0859,-0.087,0,0,0,0,0,0,-0.0536,-0.0543,-0.0554,-0.056,-0.0564,-0.0557,-0.0561,-0.0579,-0.0613,-0.0621,-0.0633,-0.0639,-0.0688,-0.0683,-0.0668,-0.0748,-0.0699,-0.0703,-0.0778,-0.079,-0.08,-0.0801,-0.0648,0,0,0,0,0,-0.0545,-0.0562,-0.056,-0.0568,-0.0569,-0.058,-0.0584,-0.059,-0.0606,-0.0622,-0.0643,-0.0667,-0.07,-0.0729,-0.0735,-0.0796,-0.076,-0.0831,-0.084,-0.0849,-0.0852,-0.0849,-0.086,-0.0748,-0.0748,-0.0748,0,0,-0.0549,-0.0549,-0.0563,-0.057,-0.0574,-0.0584,-0.0584,-0.0592,-0.0615,-0.0624,-0.0671,-0.0696,-0.0717,-0.0771,-0.0795,-0.0783,-0.0858,-0.0852,-0.086,-0.0858,-0.0853,-0.0864,-0.0874,-0.0749,-0.0749,-0.0749,0,0,-0.0547,-0.0566,-0.0579,-0.0583,-0.0584,-0.0594,-0.0606,-0.0619,-0.0641,-0.0693,-0.0701,-0.076,-0.0809,-0.0837,-0.0861,-0.093,-0.0896,-0.094,-0.1018,-0.1017,-0.1026,-0.1034,-0.0989,-0.0992,-0.0964,-0.0964,-0.0964,0,-0.0549,-0.0561,-0.0579,-0.0581,-0.058,-0.0607,-0.0614,-0.0645,-0.0675,-0.0696,-0.0715,-0.0814,-0.084,-0.0921,-0.0961,-0.0956,-0.0933,-0.0981,-0.1032,-0.1039,-0.1045,-0.0996,-0.0998,-0.097,-0.0969,-0.0969,-0.0968,0,-0.0547,-0.0563,-0.0563,-0.0589,-0.0602,-0.0604,-0.0635,-0.0668,-0.0716,-0.0747,-0.083,-0.0887,-0.0952,-0.0984,-0.1014,-0.1087,-0.1047,-0.1032,-0.1007,-0.1064,-0.1008,-0.1008,-0.0978,-0.0976,-0.0974,-0.0973,0,0,-0.0537,-0.0559,-0.0564,-0.0575,-0.06,-0.0611,-0.0655,-0.0696,-0.075,-0.0812,-0.0884,-0.0989,-0.1041,-0.1071,-0.1119,-0.1155,-0.1198,-0.1142,-0.1139,-0.1105,-0.1171,-0.0998,-0.098,-0.1205,-0.1206,-0.1207,-0.111,0,-0.0529,-0.0532,-0.0553,-0.0579,-0.0583,-0.0619,-0.067,-0.0719,-0.0785,-0.0862,-0.0941,-0.1025,-0.1068,-0.114,-0.1187,-0.1194,-0.1206,-0.1223,-0.1113,-0.1109,-0.0956,-0.0977,-0.121,-0.1109,-0.1109,-0.1109,-0.1109,0,-0.0521,-0.0522,-0.0542,-0.0579,-0.0589,-0.0637,-0.0717,-0.0768,-0.0869,-0.0922,-0.1022,-0.1072,-0.117,-0.119,-0.1227,-0.1243,-0.1222,-0.1211,-0.1206,-0.1003,-0.0935,-0.1042,-0.1108,-0.1108,-0.1108,-0.1108,-0.1108,0,-0.0498,-0.0517,-0.0537,-0.0545,-0.0603,-0.0649,-0.0706,-0.0804,-0.0841,-0.0978,-0.1007,-0.1125,-0.117,-0.1198,-0.119,-0.1224,-0.1174,-0.1199,-0.1003,-0.0988,-0.1124,-0.1117,-0.1188,-0.1188,-0.1188,-0.1188,-0.1188,0,-0.0469,-0.0484,-0.0547,-0.0558,-0.061,-0.0673,-0.0758,-0.0825,-0.0923,-0.0924,-0.1063,-0.105,-0.1177,-0.1155,-0.1174,-0.1063,-0.1146,-0.1003,-0.0956,-0.1171,-0.1171,-0.1122,-0.1116,-0.1184,-0.1185,-0.1186,-0.1187,0,-0.0453,-0.0475,-0.0511,-0.0585,-0.0605,-0.0673,-0.0751,-0.0795,-0.0904,-0.0907,-0.0935,-0.0994,-0.0942,-0.0998,-0.0997,-0.0982,-0.0931,-0.0857,-0.1042,-0.1009,-0.0756,-0.0757,-0.0657,-0.065,-0.0645,-0.064,-0.0636,0,-0.0441,-0.046,-0.0535,-0.0541,-0.0586,-0.0665,-0.0688,-0.079,-0.0788,-0.08,-0.0754,-0.0744,-0.0748,-0.0631,-0.0708,-0.0696,-0.0687,-0.0678,-0.078,-0.0739,-0.0704,-0.0715,-0.0723,-0.0626,-0.0625,-0.0623,-0.0622,0,-0.0435,-0.0488,-0.0525,-0.0532,-0.0562,-0.0563,-0.0589,-0.0573,-0.0617,-0.0678,-0.0551,-0.0534,-0.0446,-0.0477,-0.0462,-0.0459,-0.0723,-0.0619,-0.0633,-0.0728,-0.07,-0.0674,-0.0689,-0.0602,-0.0605,-0.0607,-0.0608,0,-0.0451,-0.0482,-0.0527,-0.0533,-0.0519,-0.046,-0.0489,-0.0427,-0.0439,-0.0428,-0.0339,-0.0336,-0.0358,-0.0336,-0.0308,-0.0311,-0.0331,-0.0378,-0.0406,-0.0429,-0.0406,-0.0341,-0.0079,0,0,0,0,0,-0.0457,-0.0483,-0.0488,-0.0467,-0.043,-0.0423,-0.0393,-0.0409,-0.0396,-0.0267,-0.0315,-0.0212,-0.0171,-0.0185,-0.0146,-0.0222,-0.0356,-0.0177,-0.0432,-0.049,-0.0514,-0.0513,0,0,0,0,0,0,-0.0458,-0.0495,-0.0499,-0.0405,-0.0354,-0.0302,-0.029,-0.0278,-0.0212,-0.0201,-0.0183,-0.0181,-0.0164,-0.0181,-0.0136,-0.0139,-0.0289,-0.0179,-0.0177,-0.0477,-0.0498,-0.0517,-0.0524,0,0,0,0,0]},{"header":{"parameterUnit":"m.s-1","parameterCategory":2,"la1":30.2991,"la2":30.254,"lo1":-89.0895,"lo2":-89.0444,"dy":0.0017,"dx":0.0017,"nx":28,"ny":28,"refTime":"2023-08-18T09:00:00:Z","depth":"4","parameterNumber":3,"parameterNumberName":"V-component_of_CURRENTS"},"data":[0,0,0,0,0,0,0,0,0,0,0,0,0,0,0,0,0,0,0,0,0,0,0,0,0,0,0,0,0,0,0,0,0,0,0,0,0,0,0,0,0,0,0,0,0,0,0,0,0,0,0,0,0,0,0,0,0,0,0.0043,0.0042,0,0.001,0.001,0.001,0.0025,0.0026,0.0026,0.0027,0.0014,0.0013,0.0012,0,0,0,0,0,0,0,0,0,0,0,0,0,0.012,0.0119,0.0043,0.0042,0.0042,0.001,0.001,0.001,0.0025,0.0026,0.0027,0.0027,0.0014,0.0013,0.0012,0,0,0,0,0,0,0,0,0,0,0,0,0,0.0087,0.0118,0.0043,0.0045,0.0045,0.0011,0.001,0.001,0.0024,0.0026,0.0027,0.0028,0.0015,0.0013,0.0011,-0.0022,0,0,0.0006,0.0006,0,0,0,0,0,0,0,0,0.0089,0.0085,0.0045,0.0045,0.0045,0.0023,0.0032,-0.0,0.0024,0.0033,0.0027,0.0029,0.0017,0.0016,0.0007,-0.0023,-0.0023,0.0006,0.0005,0.0005,0.0004,0,0,0,0,0,0,0,0.0091,0.0086,0.003,0.0045,0.0045,0.0049,0.0046,0.0026,0.0019,0.0032,0.0033,0.0028,0.0018,0.0009,0.0007,-0.0024,0.0006,0.0005,0.0004,0.0003,-0.0062,-0.0063,0,0,0,0,0,0,0.0093,0.0088,0.0031,0.0029,0.007,0.0047,0.0043,0.0029,0.0019,0.0019,0.0027,0.0029,0.0011,0.0009,0.0007,-0.0013,0.0005,0.0003,0.0002,-0.0062,-0.0063,-0.0063,0,0,0,0,0,0,0.0095,0.0088,0.0033,0.0059,0.0052,0.0044,0.0028,0.0028,0.002,0.0016,0.0016,0.0021,0.0012,0.0009,-0.0014,-0.0014,0.0002,0.0001,-0.0061,-0.0062,-0.0063,-0.0065,0,0,0,0,0,0,0.0097,0.0088,0.0086,0.0058,0.005,0.0008,0.0027,0.0026,0.0015,0.0017,0.0009,0.0009,0.0012,-0.0012,-0.0016,-0.0016,-0.0,-0.006,-0.0061,-0.0063,-0.0064,-0.0067,-0.0068,0,0,0,0,0,0.0099,0.0083,0.0086,0.0079,0.0044,0.0007,0.0003,0.0002,0.0013,0.0001,-0.0002,0.001,-0.0023,-0.0015,-0.0019,-0.0019,-0.0059,-0.0061,-0.0062,-0.0064,-0.0066,-0.0068,0,0,0,0,0,0,0.0115,0.0082,0.0085,0.006,0.0036,0.0009,-0.0001,-0.0003,-0.0017,-0.0014,-0.0009,-0.0011,-0.0034,-0.0032,-0.0022,-0.0043,-0.0036,-0.0039,-0.0036,-0.0038,-0.004,-0.0019,-0.0002,0,0,0,0,0,0.0117,0.0096,0.0067,0.0048,0.0035,0.0017,0.0005,-0.0004,-0.0022,-0.0026,-0.0032,-0.0037,-0.0047,-0.0045,-0.0065,-0.0078,-0.0056,-0.0079,-0.0081,-0.0082,-0.007,-0.0032,-0.0029,-0.0069,-0.0069,-0.0069,0,0,0.0122,0.0097,0.0089,0.005,0.0033,-0.0001,0.0012,-0.0019,-0.0043,-0.0028,-0.0057,-0.0056,-0.0058,-0.0073,-0.0081,-0.0066,-0.0066,-0.0085,-0.0086,-0.0072,-0.0034,-0.0029,-0.0025,-0.007,-0.007,-0.007,0,0,0.0106,0.0092,0.0069,0.0041,0.0004,-0.0015,-0.0026,-0.006,-0.0065,-0.0096,-0.0088,-0.0091,-0.0108,-0.0104,-0.0103,-0.0132,-0.0089,-0.0126,-0.0103,-0.0068,-0.0063,-0.0059,-0.0044,-0.0039,-0.0111,-0.0111,-0.0111,0,0.0112,0.0076,0.0057,0.0019,-0.0006,-0.0024,-0.0061,-0.0079,-0.0114,-0.0122,-0.0108,-0.0122,-0.0125,-0.0128,-0.0118,-0.0136,-0.0099,-0.0091,-0.0067,-0.0062,-0.0058,-0.0044,-0.0037,-0.0112,-0.0112,-0.0112,-0.0111,0,0.0075,0.0046,0.0024,-0.0028,-0.0058,-0.0098,-0.013,-0.0154,-0.0159,-0.0169,-0.0179,-0.017,-0.0157,-0.0164,-0.0138,-0.0108,-0.0089,-0.0084,-0.0054,-0.0053,-0.004,-0.0033,-0.0112,-0.0112,-0.0112,-0.0112,0,0,0.0081,0.0015,0.0007,-0.0025,-0.0089,-0.0124,-0.0166,-0.0205,-0.0224,-0.0228,-0.0232,-0.0223,-0.0181,-0.0175,-0.0144,-0.0102,-0.0044,-0.0052,-0.005,-0.0025,0.0047,-0.0029,-0.0029,-0.0006,-0.0005,-0.0003,0.0038,0,0.0057,-0.0009,-0.004,-0.011,-0.015,-0.0186,-0.0223,-0.0261,-0.0271,-0.0282,-0.0253,-0.0237,-0.0195,-0.0153,-0.011,-0.0065,-0.0021,-0.0055,0.0032,0.0034,-0.0022,-0.0022,0.0001,0.0043,0.0045,0.0046,0.0047,0,0.0027,-0.0017,-0.0075,-0.0154,-0.0174,-0.0211,-0.0272,-0.0302,-0.032,-0.0312,-0.0275,-0.0243,-0.0177,-0.0136,-0.0039,-0.0045,0.0018,0.0047,0.005,-0.001,-0.0028,0.0045,0.0059,0.0058,0.0057,0.0057,0.0056,0,0.0032,-0.0048,-0.0092,-0.0121,-0.0205,-0.023,-0.0262,-0.0303,-0.0319,-0.0293,-0.0282,-0.0222,-0.0166,-0.0082,-0.0011,0.0013,0.0073,0.0098,0.0074,0.0069,0.0129,0.0124,0.0174,0.0174,0.0173,0.0173,0.0173,0,0.0004,-0.0039,-0.0087,-0.012,-0.0174,-0.0221,-0.0262,-0.0284,-0.0294,-0.0308,-0.0257,-0.0244,-0.0133,-0.0096,-0.0019,0.003,0.0071,0.008,0.0079,0.0121,0.0115,0.0133,0.0127,0.0175,0.0174,0.0174,0.0174,0,-0.0001,-0.0031,-0.0089,-0.0156,-0.0174,-0.0204,-0.0253,-0.0282,-0.0273,-0.028,-0.0249,-0.0226,-0.0166,-0.0117,-0.0014,0.0007,0.0059,0.0066,0.0078,0.0076,0.0041,0.0035,0.0072,0.0069,0.0067,0.0066,0.0065,0,-0.0016,-0.0039,-0.0098,-0.0115,-0.0142,-0.0183,-0.0219,-0.0252,-0.0269,-0.0282,-0.0282,-0.0238,-0.0215,-0.0146,-0.0094,-0.0007,0.0009,0.0028,0.0075,0.0038,0.0034,0.0031,0.0027,0.0061,0.0061,0.0061,0.006,0,-0.0047,-0.0051,-0.0096,-0.01,-0.0135,-0.0203,-0.0239,-0.0238,-0.0273,-0.028,-0.0272,-0.0244,-0.0221,-0.0159,-0.0117,-0.0051,0.0011,0.001,0.0016,0.0061,0.0026,0.0023,0.0022,0.0053,0.0054,0.0055,0.0055,0,-0.0063,-0.0083,-0.0095,-0.0088,-0.0121,-0.0169,-0.0224,-0.0246,-0.0267,-0.0262,-0.0273,-0.0244,-0.0229,-0.0187,-0.0153,-0.0106,-0.0062,-0.0026,-0.0016,-0.0009,-0.0058,-0.0115,-0.0127,0,0,0,0,0,-0.0061,-0.0053,-0.0072,-0.01,-0.0117,-0.0122,-0.0205,-0.0259,-0.0281,-0.0266,-0.0257,-0.0232,-0.0191,-0.0192,-0.0144,-0.018,-0.0064,-0.0129,-0.0018,0.0017,0.0025,-0.0028,0,0,0,0,0,0,-0.0076,-0.0081,-0.0067,-0.0056,-0.0041,-0.0113,-0.0141,-0.0205,-0.0196,-0.0201,-0.0174,-0.0197,-0.0151,-0.0169,-0.0117,-0.0117,-0.0042,-0.0118,-0.0118,0.0013,0.002,0.0026,-0.0025,0,0,0,0,0]}]]